Regional Weather Roundup
Issued by NWS Kansas City/Pleasant Hill, MO

Home | Current Version | Previous Version | Text Only | Print | Product List | Glossary On
Versions: 1 2 3 4 5 6 7 8 9 10 11 12 13 14 15 16 17 18 19 20 21 22 23 24 25 26 27
000
ASUS43 KEAX 100410
RWREAX

WEATHER ROUNDUP FOR EASTERN KANSAS AND NORTHWEST MISSOURI
NATIONAL WEATHER SERVICE KANSAS CITY/PLEASANT HILL MO
1000 PM CST FRI DEC 09 2016

KSZ040-057-103>105-MOZ028-029-037-043-100500-
...KANSAS CITY METROPOLITAN AREA...

CITY           SKY/WX    TMP DP  RH WIND       PRES   REMARKS
K.C. INTL      CLOUDY    26  12  55 SE6       30.50F WCI  19
K.C. DOWNTOWN  CLOUDY    28  11  48 SE7       30.52F WCI  21
LEES SUMMIT    CLOUDY    27  11  51 E5        30.52S WCI  22
OLATHE - IXD   CLOUDY    26  14  60 SE6       30.51F WCI  19
OLATHE - OJC   CLOUDY    25  13  60 SE3       30.50F
LAWRENCE       CLOUDY    26  18  71 E6        30.51F WCI  19

$$

MOZ001>008-011>017-020>025-030>033-038>040-044>046-053-054-100500-
...NORTHERN AND CENTRAL MISSOURI...

CITY           SKY/WX    TMP DP  RH WIND       PRES   REMARKS
ST. JOSEPH     CLOUDY    26  12  55 SE5       30.52F WCI  20
MOSBY          CLOUDY    28  14  54 CALM      30.54F
WARRENSBURG    CLOUDY    27  12  54 NE3       30.54S
WHITEMAN AFB   CLOUDY    26  11  52 CALM      30.53R
CLINTON        CLOUDY    27  14  59 CALM      30.54R
SEDALIA        CLOUDY    26  11  52 E3        30.55R
WARSAW         NOT AVBL
CHILLICOTHE      N/A     25   9  50 SE3       30.55F
KIRKSVILLE     CLOUDY    23  14  68 S3        30.54S

$$

MOZ041-047>049-056>058-063>065-088>090-097-100500-
...EASTERN AND SOUTHERN MISSOURI...

CITY           SKY/WX    TMP DP  RH WIND       PRES   REMARKS
ST. LOUIS INTL CLOUDY    25  13  60 CALM      30.59S
SPIRIT OF STL  MOCLDY    19  15  84 CALM      30.59S
COLUMBIA       CLOUDY    24  13  62 E5        30.54F WCI  18
JEFFERSON CITY CLOUDY    25  13  60 SE3       30.57S
ROLLA          CLOUDY    21  12  68 E6        30.52S WCI  13
OSAGE BEACH    CLOUDY    25  12  58 CALM      30.54F
SPRINGFIELD    CLOUDY    31  11  43 S6        30.50S WCI  25
BRANSON        CLOUDY    28  16  59 SE8       30.53R WCI  20
JOPLIN         CLOUDY    31  16  54 MISG      30.52F
WEST PLAINS    CLOUDY    26  16  65 CALM      30.54F

$$

IAZ060-094-KSZ022-034>040-054-083-096-NEZ052-066-093-100500-
...KANSAS...SOUTHEAST NEBRASKA AND IOWA...

CITY           SKY/WX    TMP DP  RH WIND       PRES   REMARKS
TOPEKA         CLOUDY    28  17  63 E5        30.50F WCI  23
MANHATTAN      CLOUDY    29  15  56 CALM      30.48S
EMPORIA        CLOUDY    27  14  58 S7        30.47F WCI  19
CHANUTE        CLOUDY    29  15  56 SE6       30.50F WCI  23
WICHITA        CLOUDY    23  14  68 SE8       30.44F WCI  14
OMAHA          CLOUDY    22  11  62 SE7       30.50F WCI  13
LINCOLN        CLOUDY    23  14  68 E6        30.47F WCI  16
FALLS CITY     CLOUDY    25  14  63 E6        30.49F WCI  18
LAMONI         CLOUDY    22  12  65 CALM      30.50F
DES MOINES     CLOUDY    22  12  65 W6        30.52F WCI  14

$$





USA.gov is the U.S. government's official web portal to all federal, state and local government web resources and services.